Regional Weather Roundup
Issued by NWS

Home | Current Version | Previous Version | Graphics & Text | Print | Product List | Glossary Off
Versions: 1 2 3 4 5 6 7 8 9 10 11 12 13 14 15 16 17 18 19 20 21 22 23 24 25 26 27 28 29 30 31 32 33 34 35 36 37 38 39 40 41 42 43 44 45 46 47 48 49 50

000
ASUS45 KABQ 271710
RWRNM
WEATHER ROUNDUP FOR NEW MEXICO
NATIONAL WEATHER SERVICE ALBUQUERQUE NM
1000 AM MST FRI FEB 27 2015

NOTE: "FAIR" MEANS FEW OR NO CLOUDS BELOW 12,000 FEET AGL WITH NO
       SIGNIFICANT WEATHER OR OBSTRUCTIONS TO VISION.

      THIS PRODUCT IS RELEASED AS TWO VERSIONS.  ONE VERSION NEAR
      THE TOP OF THE HOUR CONTAINING PRELIMINARY DATA FROM ALBUQUERQUE
      AND OTHER STATIONS.  A FINAL VERSION WITH ADDITIONAL DATA IS
      ISSUED ABOUT 10 MINUTES AFTER THE HOUR.

NMZ501-503-504-510>518-271800-
NORTHWEST PLATEAU/NORTHCENTRAL MOUNTAINS

CITY           SKY/WX    TMP DP  RH WIND       PRES   REMARKS
FARMINGTON     LGT SNOW  31  28  89 E3        29.87F VSB 3/4
LOS ALAMOS     CLOUDY    15  13  90 S12       29.94S WCI   2
SANTA FE       FLURRIES  18  10  71 S20       29.97F WCI   2
TAOS           CLOUDY    18  10  73 W5        29.94R WCI  11
ANGEL FIRE     FLURRIES  11   6  81 NE7       29.85F WCI   0

$$
NMZ402-403-502-505>509-271800-
WESTCENTRAL MOUNTAINS/SOUTHWEST MOUNTAINS

CITY           SKY/WX    TMP DP  RH WIND       PRES   REMARKS
GALLUP         CLOUDY    33  28  81 CALM      29.85F
GRANTS         CLOUDY    24  23  99 SE18G24   29.91F FOG     WCI   9
SILVER CITY    PTSUNNY   36  25  64 E6        29.99S WCI  31

$$
NMZ407-409-411-412-271800-
SOUTHERN DESERTS

CITY           SKY/WX    TMP DP  RH WIND       PRES   REMARKS
LORDSBURG      FAIR      41  27  56 SE22G31   29.95S
DEMING         SUNNY     39  25  57 E15G21    30.00F WCI  31
LAS CRUCES     SUNNY     37  26  63 SE16      30.03S WCI  28
HOLLOMAN AFB   CLOUDY    34  27  74 NE2       30.05S
ALAMOGORDO     CLOUDY    32  27  80 N5        30.07S WCI  27
T OR C         CLOUDY    35  27  72 S6        29.98F WCI  30

$$
NMZ519>523-271800-
CENTRAL VALLEYS/CENTRAL HIGHLANDS

CITY           SKY/WX    TMP DP  RH WIND       PRES   REMARKS
ALBUQUERQUE    CLOUDY    25  17  72 E14       29.99F WCI  13
DOUBLE EAGLE   CLOUDY    19  16  86 N7        29.98F WCI  10
MORIARTY ARPT  FLURRIES  16   9  73 SE13      30.04S WCI   2
CLINES CORNERS LGT SNOW  12   7  80 SE12      29.96S WCI  -2
BELEN          CLOUDY    26  23  87 CALM      30.00F
SOCORRO          N/A     30  28  93 S5        30.00F WCI  25

$$
NMZ524>526-539-540-271800-
SOUTHCENTRAL MOUNTAINS

CITY           SKY/WX    TMP DP  RH WIND       PRES   REMARKS
RUIDOSO        FOG       16  12  86 SE8       30.03S VSB<1/4 WCI   5

$$
NMZ527>531-271800-
NORTHEAST HIGHLANDS/NORTHEAST PLAINS

CITY           SKY/WX    TMP DP  RH WIND       PRES   REMARKS
LAS VEGAS      LGT SNOW  11   7  84 S18       29.97F FOG     WCI  -7
RATON          LGT SNOW  11   7  84 S21       29.99F FOG     WCI  -8
CLAYTON        LGT SNOW  12   7  80 SE20      30.13F WCI  -6

$$
NMZ532>537-271800-
EASTCENTRAL PLAINS

CITY           SKY/WX    TMP DP  RH WIND       PRES   REMARKS
TUCUMCARI      LGT SNOW  17  10  74 S13       30.22S WCI   4
CANNON AFB     LGT SNOW  13   8  80 SE15      30.21F WCI  -2
CLOVIS AIRPORT CLOUDY    12   7  79 SE14      30.22F WCI  -3

$$
NMZ028-029-538-271800-
SOUTHEAST PLAINS

CITY           SKY/WX    TMP DP  RH WIND       PRES   REMARKS
ROSWELL        CLOUDY    20  15  81 SE13      30.23S WCI   7
ARTESIA        CLOUDY    21  21 100 SE14      30.25S FOG     WCI   8
CARLSBAD       CLOUDY    23  19  85 E15       30.25R WCI  10
HOBBS          LGT SNOW  18  14  86 E15       30.26S WCI   3


$$


USA.gov is the U.S. government's official web portal to all federal, state and local government web resources and services.